Stations météo

réclame
Mon MeteoGroup
Fair Isle, Grande-Bretagne (3008): Température de l'air & dewpoint: 11.10.2017 10:00:00 - 17.10.2017 10:00:00 (BST)Fair Isle, Grande-Bretagne (3008): Température de l'air -20cm & Température de l'air -100cm: 11.10.2017 10:00:00 - 17.10.2017 10:00:00 (BST)Fair Isle, Grande-Bretagne (3008): Vitesse du vent & gusts: 11.10.2017 10:00:00 - 17.10.2017 10:00:00 (BST)Fair Isle, Grande-Bretagne (3008): Direction du vent: 11.10.2017 10:00:00 - 17.10.2017 10:00:00 (BST)Fair Isle, Grande-Bretagne (3008): reduced air pressure: 11.10.2017 10:00:00 - 17.10.2017 10:00:00 (BST)Fair Isle, Grande-Bretagne (3008): visibility: 11.10.2017 10:00:00 - 17.10.2017 10:00:00 (BST)Fair Isle, Grande-Bretagne (3008): Quantités de précipitations: 11.10.2017 10:00:00 - 17.10.2017 10:00:00 (BST)
Date & Time tt [°C] td [°C] tt -20cm [°C] tt -100cm [°C] ff [km/h] ff [knt] fx [km/h] fx [knt] dd ppp [hPa] vv [km] rr [mm]
17.10.2017 10:00:00 - - - - - - - - - - - -
17.10.2017 09:00:00 - - - - - - - - - - - -
17.10.2017 08:00:00 - - - - - - - - - - - -
17.10.2017 07:00:00 - - - - - - - - - - - -
17.10.2017 06:00:00 11,1 10,9 - - 21 11 - - E 992,3 5 2,2
17.10.2017 05:00:00 11,1 10,7 - - 18 10 - - E 992,8 2,9 1,4
17.10.2017 04:00:00 11,3 10,7 - - 16 9 - - ESE 993,8 3,5 0,8
17.10.2017 03:00:00 11,9 11,2 - - 21 11 - - E 994,7 7 0,0
17.10.2017 02:00:00 11,8 11,5 - - 29 16 59 32 E 995,5 7 0,0
17.10.2017 01:00:00 10,1 9,8 - - 35 19 85 46 E 996,3 7 1,0
17.10.2017 00:00:00 9,3 9,0 - - 54 29 93 50 E 997,8 3,6 2,6
16.10.2017 23:00:00 9,1 8,7 - - 54 29 98 53 E 999,9 3,9 0,4
16.10.2017 22:00:00 8,2 7,6 - - 55 30 122 66 E 1001,2 5 1,6
16.10.2017 21:00:00 8,7 7,7 - - 54 29 91 49 E 1003,8 6 1,6
16.10.2017 20:00:00 8,7 7,1 - - 42 23 72 39 E 1007,0 4,1 0,8
16.10.2017 19:00:00 9,5 7,1 - - 35 19 57 31 E 1008,7 9 0,4
16.10.2017 18:00:00 10,1 6,8 - - 34 18 54 29 E 1009,5 15 0,0
16.10.2017 17:00:00 10,2 8,0 - - 24 13 - - E 1010,7 40 0,2
16.10.2017 16:00:00 10,4 8,8 - - 22 12 - - E 1011,8 24 0,2
16.10.2017 15:00:00 10,9 8,5 - - 11 6 - - E 1012,8 28 0,0
16.10.2017 14:00:00 11,3 8,2 - - 8 4 - - SE 1013,9 30 0,0
16.10.2017 13:00:00 11,4 8,7 - - 13 7 - - S 1015,1 30 0,0
16.10.2017 12:00:00 11,1 7,9 - - 13 7 - - SSW 1015,5 30 0,0
16.10.2017 11:00:00 10,9 8,0 - - 11 6 - - SSW 1015,3 40 0,0
16.10.2017 10:00:00 10,7 7,6 11,0 10,9 5 3 - - SSW 1014,2 29 0,0
16.10.2017 09:00:00 10,3 7,8 - - 15 8 - - SSW 1014,3 21 0,0
16.10.2017 08:00:00 10,1 7,6 - - 13 7 - - SSW 1014,5 24 0,0
16.10.2017 07:00:00 9,4 7,4 - - 11 6 - - S 1014,1 40 0,0
16.10.2017 06:00:00 9,7 6,7 - - 5 3 - - S 1013,7 25 0,0
16.10.2017 05:00:00 9,5 6,4 - - 4 2 - - SW 1013,6 30 0,0
16.10.2017 04:00:00 9,9 6,8 - - 11 6 - - W 1013,4 35 0,2
16.10.2017 03:00:00 9,8 7,3 - - 13 7 - - W 1013,3 35 0,0
16.10.2017 02:00:00 8,9 7,0 - - 21 11 - - W 1013,2 3,1 0,0
16.10.2017 01:00:00 9,8 7,1 - - 16 9 - - W 1012,3 15 0,0
16.10.2017 00:00:00 9,7 6,6 - - 22 12 - - W 1011,3 40 0,0
15.10.2017 23:00:00 9,8 7,1 - - 26 14 - - W 1010,5 22 0,2
15.10.2017 22:00:00 10,0 7,0 - - 34 18 59 32 W 1009,0 11 0,0
15.10.2017 21:00:00 10,0 7,2 - - 37 20 72 39 W 1007,8 17 0,0
15.10.2017 20:00:00 9,5 7,4 - - 50 27 80 43 W 1005,9 5 0,0
15.10.2017 19:00:00 9,8 7,2 - - 67 36 91 49 W 1003,4 11 0,0
15.10.2017 18:00:00 10,3 8,7 - - 55 30 87 47 W 1000,9 9 0,0
15.10.2017 17:00:00 11,9 10,3 - - 68 37 94 51 WSW 998,3 10 0,0
15.10.2017 16:00:00 13,8 11,9 - - 54 29 68 37 S 997,3 12 0,0
15.10.2017 15:00:00 13,4 11,9 - - 42 23 59 32 S 998,1 11 0,0
15.10.2017 14:00:00 13,7 11,8 - - 48 26 61 33 S 998,5 13 0,0
15.10.2017 13:00:00 13,5 11,8 - - 39 21 52 28 S 999,3 12 0,0
15.10.2017 12:00:00 13,2 11,6 - - 44 24 54 29 S 999,7 12 0,0
15.10.2017 11:00:00 13,0 11,6 - - 37 20 52 28 SSW 1000,1 11 0,2
15.10.2017 10:00:00 12,6 11,7 11,0 11,0 39 21 55 30 S 1000,4 10 0,2
15.10.2017 09:00:00 12,6 11,8 - - 41 22 54 29 S 1001,2 9 0,4
15.10.2017 08:00:00 12,4 11,8 - - 37 20 48 26 S 1001,7 10 0,4
15.10.2017 07:00:00 12,2 11,7 - - 34 18 48 26 S 1002,8 8 0,4
15.10.2017 06:00:00 11,8 11,5 - - 28 15 - - SSE 1004,4 7 0,6
15.10.2017 05:00:00 11,0 10,3 - - 28 15 - - ESE 1006,0 11 0,4
15.10.2017 04:00:00 9,9 8,3 - - 28 15 - - ESE 1007,9 5 0,2
15.10.2017 03:00:00 9,8 6,4 - - 21 11 - - SE 1009,4 13 0,6
15.10.2017 02:00:00 9,7 5,7 - - 9 5 - - S 1010,5 21 0,0
15.10.2017 01:00:00 11,0 7,3 - - 31 17 - - S 1012,0 17 0,0
15.10.2017 00:00:00 11,1 7,8 - - 21 11 - - SSW 1012,4 12 0,0
14.10.2017 23:00:00 11,2 7,8 - - 24 13 - - SW 1012,4 13 0,0
14.10.2017 22:00:00 11,1 8,3 - - 34 18 - - SW 1012,4 12 0,0
14.10.2017 21:00:00 11,0 8,5 - - 34 18 59 32 SW 1012,5 12 0,0
14.10.2017 20:00:00 11,2 8,2 - - 41 22 57 31 SW 1012,1 13 0,0
14.10.2017 19:00:00 11,3 8,2 - - 37 20 63 34 WSW 1011,7 12 0,0
14.10.2017 18:00:00 11,2 8,4 - - 37 20 65 35 WSW 1011,2 10 0,0
14.10.2017 17:00:00 11,2 8,6 - - 41 22 67 36 SW 1011,0 10 0,0
14.10.2017 16:00:00 11,6 8,0 - - 50 27 70 38 SW 1010,4 13 0,0
14.10.2017 15:00:00 12,0 8,3 - - 50 27 63 34 SW 1009,8 12 0,0
14.10.2017 14:00:00 11,9 7,9 - - 50 27 78 42 SW 1009,5 12 0,0
14.10.2017 13:00:00 11,6 8,0 - - 46 25 61 33 SW 1009,1 14 0,0
14.10.2017 12:00:00 11,4 7,7 - - 46 25 65 35 SW 1008,5 11 0,0
14.10.2017 11:00:00 11,8 7,7 - - 52 28 67 36 SW 1008,2 10 0,0
14.10.2017 10:00:00 11,5 7,9 11,0 11,0 44 24 65 35 SSW 1007,7 11 0,0
14.10.2017 09:00:00 11,1 7,9 - - 42 23 61 33 SW 1007,1 11 0,0
14.10.2017 08:00:00 11,2 8,0 - - 39 21 61 33 SW 1006,8 12 0,0
14.10.2017 07:00:00 11,2 7,5 - - 54 29 70 38 SW 1006,4 10 0,0
14.10.2017 06:00:00 11,0 7,4 - - 46 25 61 33 SW 1006,1 11 0,0
14.10.2017 05:00:00 10,9 7,7 - - 48 26 74 40 SW 1005,7 13 0,0
14.10.2017 04:00:00 11,3 7,6 - - 48 26 65 35 SSW 1005,2 12 0,2
14.10.2017 03:00:00 11,3 8,0 - - 42 23 76 41 SW 1005,1 10 0,0
14.10.2017 02:00:00 11,5 7,3 - - 41 22 67 36 SW 1005,0 11 0,0
14.10.2017 01:00:00 11,4 7,8 - - 42 23 63 34 SW 1004,8 10 0,0
14.10.2017 00:00:00 10,2 8,9 - - 48 26 76 41 WSW 1004,4 6 1,8
13.10.2017 23:00:00 11,8 8,0 - - 37 20 61 33 SW 1004,0 9 0,0
13.10.2017 22:00:00 12,0 8,2 - - 41 22 54 29 SSW 1003,3 13 0,0
13.10.2017 21:00:00 12,2 8,4 - - 35 19 65 35 SSW 1003,1 15 0,0
13.10.2017 20:00:00 12,0 7,9 - - 44 24 76 41 SW 1003,0 11 0,0
13.10.2017 19:00:00 12,4 7,6 - - 55 30 72 39 SW 1002,4 13 0,0
13.10.2017 18:00:00 12,5 8,2 - - 52 28 67 36 SW 1001,6 14 0,0
13.10.2017 17:00:00 12,9 9,0 - - 50 27 65 35 SW 1001,2 12 0,0
13.10.2017 16:00:00 13,3 9,8 - - 44 24 63 34 SW 1000,7 12 0,0
13.10.2017 15:00:00 13,7 10,1 - - 42 23 63 34 SW 1000,2 11 0,0
13.10.2017 14:00:00 13,8 11,0 - - 39 21 57 31 SW 999,5 13 0,0
13.10.2017 13:00:00 13,3 10,2 - - 37 20 54 29 WSW 998,8 15 1,2
13.10.2017 12:00:00 13,1 10,4 - - 34 18 54 29 SW 998,2 14 0,0
13.10.2017 11:00:00 13,4 12,8 - - 29 16 46 25 SSW 997,8 8 0,0
13.10.2017 10:00:00 13,3 12,9 - - 34 18 50 27 S 996,9 10 0,2
13.10.2017 09:00:00 13,0 12,7 - - 39 21 50 27 S 997,0 8 1,0
13.10.2017 08:00:00 12,8 12,4 - - 35 19 48 26 S 997,1 7 0,0
13.10.2017 07:00:00 12,5 12,1 - - 37 20 61 33 S 997,4 8 0,2
13.10.2017 06:00:00 12,3 11,9 - - 41 22 59 32 S 997,7 8 0,2
13.10.2017 05:00:00 12,0 11,8 - - 46 25 68 37 S 998,5 8 2,6
13.10.2017 04:00:00 12,2 10,9 - - 46 25 65 35 S 998,8 11 0,0
13.10.2017 03:00:00 12,0 10,3 - - 44 24 65 35 S 999,3 13 0,0
13.10.2017 02:00:00 11,7 9,8 - - 46 25 65 35 S 1000,0 13 0,0
13.10.2017 01:00:00 11,5 9,7 - - 46 25 63 34 SSE 1001,3 17 0,0
13.10.2017 00:00:00 11,2 8,9 - - 41 22 57 31 SSE 1002,4 21 0,0
12.10.2017 23:00:00 10,9 9,1 - - 41 22 61 33 S 1003,6 7 0,2
12.10.2017 22:00:00 11,4 9,5 - - 37 20 52 28 SSE 1004,2 18 0,0
12.10.2017 21:00:00 11,3 9,0 - - 39 21 48 26 SSE 1005,0 24 0,0
12.10.2017 20:00:00 11,0 8,2 - - 29 16 - - S 1005,8 22 0,0
12.10.2017 19:00:00 10,6 7,2 - - 28 15 - - S 1006,2 21 0,0
12.10.2017 18:00:00 10,6 7,3 - - 28 15 - - SSW 1006,4 18 0,0
12.10.2017 17:00:00 10,6 7,2 - - 31 17 52 28 SW 1006,4 17 0,0
12.10.2017 16:00:00 10,5 7,6 - - 35 19 52 28 SW 1006,3 16 0,0
12.10.2017 15:00:00 11,1 5,6 - - 34 18 46 25 WSW 1005,8 13 0,0
12.10.2017 14:00:00 11,0 6,2 - - 34 18 - - WSW 1005,1 15 0,0
12.10.2017 13:00:00 10,8 5,5 - - 34 18 54 29 W 1004,4 14 0,0
12.10.2017 12:00:00 10,6 5,4 - - 35 19 55 30 W 1003,2 17 0,0
12.10.2017 11:00:00 10,2 5,6 - - 28 15 59 32 W 1002,2 24 0,0
12.10.2017 10:00:00 9,8 5,8 11,0 11,0 34 18 70 38 W 1000,9 24 0,8
12.10.2017 09:00:00 9,0 5,3 - - 39 21 70 38 WSW 999,9 14 0,0
12.10.2017 08:00:00 8,2 5,1 - - 44 24 67 36 W 998,7 21 0,6
12.10.2017 07:00:00 8,1 5,7 - - 50 27 76 41 W 997,8 9 1,4
12.10.2017 06:00:00 8,9 7,1 - - 35 19 57 31 SW 996,6 17 0,2
12.10.2017 05:00:00 8,5 6,7 - - 34 18 74 40 WSW 996,2 13 0,4
12.10.2017 04:00:00 9,6 6,2 - - 35 19 59 32 WSW 996,1 28 0,0
12.10.2017 03:00:00 9,9 7,1 - - 34 18 59 32 WSW 996,1 17 0,0
12.10.2017 02:00:00 10,1 6,9 - - 31 17 - - SW 996,0 19 0,0
12.10.2017 01:00:00 9,9 6,5 - - 29 16 - - SW 995,8 19 0,0
12.10.2017 00:00:00 10,1 6,8 - - 26 14 - - WSW 995,7 15 0,0
11.10.2017 23:00:00 10,0 6,3 - - 24 13 - - WSW 995,3 17 0,0
11.10.2017 22:00:00 9,3 6,5 - - 18 10 48 26 WSW 995,1 14 0,8
11.10.2017 21:00:00 8,9 5,5 - - 15 8 52 28 WSW 994,8 21 0,4
11.10.2017 20:00:00 10,1 4,9 - - 24 13 - - WSW 994,5 22 0,0
11.10.2017 19:00:00 9,9 5,2 - - 21 11 - - WSW 994,2 18 0,0
11.10.2017 18:00:00 10,1 4,9 - - 21 11 - - WSW 993,5 16 0,0
11.10.2017 17:00:00 10,9 6,3 - - 22 12 - - W 992,5 19 0,0
11.10.2017 16:00:00 11,5 7,0 - - 22 12 - - W 992,2 23 0,0
11.10.2017 15:00:00 11,4 7,4 - - 29 16 - - WSW 991,8 13 0,0
11.10.2017 14:00:00 11,7 8,3 - - 31 17 55 30 WSW 991,3 13 0,0
11.10.2017 13:00:00 11,9 8,9 - - 31 17 54 29 WSW 990,7 12 0,0
11.10.2017 12:00:00 10,8 9,2 - - 41 22 57 31 SW 990,1 15 0,2
11.10.2017 11:00:00 10,9 8,7 - - 44 24 59 32 SW 989,5 10 0,2
11.10.2017 10:00:00 11,7 9,4 11,0 11,0 34 18 46 25 SW 988,9 11 0,0

tt = Température de l'air
td = dewpoint
tt -20cm = Température de l'air -20cm
tt -100cm = Température de l'air -100cm
ff = Vitesse du vent
fx = gusts
dd = Direction du vent
ppp = reduced air pressure
vv = visibility
rr = Quantités de précipitations

stations d'obs. à proximité